Total_Precipitation_Accumulation
0.17 0.12 0.09 0.06 0.08 0.12 0.09 0.06 0.03 0.01 0.01 0.01 0.00 0.00 0.00 0.00 0.00 0.00 0.00 0.00 0.00 0.00
0.30 0.19 0.19 0.14 0.06 0.06 0.07 0.05 0.03 0.01 0.01 0.01 0.01 0.01 0.01 0.01 0.01 0.01 0.01 0.00 0.00 0.00
0.46 0.50 0.33 0.23 0.21 0.13 0.10 0.07 0.07 0.05 0.03 0.02 0.01 0.01 0.01 0.02 0.01 0.01 0.00 0.00 0.00 0.00
0.43 0.57 0.52 0.33 0.32 0.27 0.24 0.16 0.09 0.11 0.11 0.08 0.04 0.03 0.02 0.01 0.01 0.01 0.00 0.00 0.00 0.00
0.37 0.47 0.46 0.44 0.40 0.38 0.38 0.35 0.26 0.18 0.17 0.17 0.14 0.10 0.08 0.05 0.03 0.03 0.04 0.04 0.02 0.02
0.15 0.30 0.35 0.42 0.49 0.44 0.39 0.41 0.39 0.31 0.23 0.22 0.23 0.22 0.19 0.15 0.12 0.10 0.10 0.09 0.08 0.08
0.13 0.20 0.24 0.35 0.48 0.44 0.39 0.35 0.39 0.38 0.39 0.37 0.32 0.29 0.27 0.27 0.24 0.21 0.19 0.17 0.15 0.13
0.13 0.11 0.18 0.23 0.29 0.31 0.34 0.30 0.33 0.38 0.39 0.43 0.42 0.36 0.31 0.29 0.26 0.23 0.21 0.19 0.17 0.14
0.09 0.15 0.16 0.18 0.25 0.31 0.35 0.36 0.33 0.28 0.25 0.24 0.24 0.31 0.30 0.25 0.21 0.18 0.13 0.10 0.07 0.05
0.00 0.01 0.01 0.02 0.03 0.04 0.07 0.10 0.12 0.13 0.13 0.14 0.15 0.23 0.22 0.20 0.13 0.14 0.10 0.05 0.04 0.02
0.00 0.00 0.00 0.00 0.00 0.00 0.00 0.00 0.02 0.06 0.07 0.06 0.09 0.16 0.16 0.15 0.09 0.10 0.08 0.05 0.02 0.01
0.00 0.00 0.00 0.00 0.00 0.00 0.00 0.00 0.00 0.01 0.03 0.05 0.06 0.09 0.06 0.06 0.04 0.04 0.02 0.01 0.00 0.00
0.00 0.00 0.00 0.00 0.00 0.00 0.00 0.00 0.00 0.00 0.00 0.00 0.00 0.01 0.00 0.00 0.00 0.00 0.00 0.00 0.01 0.02
0.00 0.00 0.00 0.00 0.00 0.00 0.00 0.00 0.00 0.00 0.00 0.00 0.01 0.02 0.03 0.03 0.01 0.02 0.04 0.04 0.03 0.02